Flag for Germany Weather past 2 weeks in Idar-Oberstein, Rhineland-Palatinate, Germany

32 °F

Snow. Passing clouds.

Feels Like: 24 °F
Forecast: 25 / 41 °F
Wind: 9 mph from Southwest

Location: Hahn

Current Time: Nov 25, 2015 at 3:29:26 AM

Latest Report: Nov 25, 2015 at 2:50 AM

Visibility: 2 mi

Pressure: 29.74 "Hg

Humidity: 93%

Dew point: 30 °F

Location of Idar-ObersteinLocation

Historic Weather in Idar-Oberstein — Graph


Idar-Oberstein temperature yesterday

Maximum temperature yesterday: 32 °F (at 12:20 AM)
Minimum temperature yesterday: 25 °F (at 6:20 AM)
Average temperature yesterday: 30 °F

Past Weeks' High & Low Weather Summary

High55 °F (Nov 17, 9:20 PM)100% (Nov 10, 3:20 PM)30.36 "Hg (Nov 10, 3:20 PM)
Low25 °F (Nov 24, 6:20 AM)71% (Nov 11, 3:50 PM)29.36 "Hg (Nov 21, 12:50 PM)
Average43 °F91%30.01 "Hg
* Reported Nov 10 2:20 AM — Nov 25 2:20 AM, Idar-Oberstein, Weather by CustomWeather, © 2015

Note: Actual official high and low records may vary slightly from our data, if they occured in-between our weather recording intervals... More about our weather records


Idar-Oberstein weather history for previous 24 hours

Time TempWeatherWind HumidityBarometerVisibility
2:20 AM
Wed, Nov 25
32 °FPassing clouds.8 mph93%29.74 "Hg4 mi
1:50 AM32 °FLight snow. Passing clouds.8 mph93%29.74 "Hg2 mi
12:50 AM30 °FLight snow. Passing clouds.10 mph100%29.77 "Hg2 mi
12:20 AM30 °FSnow. Passing clouds.10 mph100%29.77 "Hg2 mi
11:50 PM
Tue, Nov 24
30 °FSnow. Partly cloudy.13 mph100%29.80 "Hg2 mi
10:50 PM30 °FSnow. Partly cloudy.13 mph100%29.80 "Hg4 mi
10:20 PM30 °FSnow. Passing clouds.13 mph93%29.83 "Hg4 mi
9:50 PM32 °FSnow. Passing clouds.13 mph87%29.83 "Hg4 mi
9:20 PM30 °FSnow. Passing clouds.12 mph93%29.86 "Hg4 mi
8:50 PM32 °FSnow. Passing clouds.12 mph87%29.86 "Hg4 mi
8:20 PM30 °FSnow. Passing clouds.15 mph93%29.86 "Hg4 mi
7:50 PM30 °FSnow. Passing clouds.17 mph93%29.89 "Hg4 mi
7:20 PM30 °FSnow. Passing clouds.16 mph93%29.89 "Hg3 mi
6:50 PM32 °FSnow. Passing clouds.16 mph87%29.89 "Hg2 mi
6:20 PM32 °FLight snow. Passing clouds.15 mph87%29.92 "HgN/A
5:50 PM32 °FSnow. Passing clouds.18 mph87%29.92 "HgN/A
5:20 PM32 °FSnow. Passing clouds.15 mph80%29.95 "HgN/A
4:50 PM32 °FLight snow. Passing clouds.16 mph80%29.95 "HgN/A
4:20 PM32 °FScattered clouds.15 mph80%29.98 "HgN/A
3:50 PM32 °FPartly sunny.14 mph80%29.98 "HgN/A
3:20 PM32 °FPartly sunny.13 mph80%30.01 "HgN/A
2:50 PM32 °FPartly sunny.14 mph80%30.01 "HgN/A
2:20 PM32 °FPartly sunny.13 mph80%30.04 "HgN/A
1:50 PM32 °FPartly sunny.13 mph80%30.04 "HgN/A
1:20 PM32 °FPassing clouds.13 mph80%30.07 "HgN/A
12:50 PM32 °FSunny.12 mph80%30.07 "Hg10 mi
12:20 PM32 °FPassing clouds.10 mph80%30.09 "HgN/A
11:50 AM32 °FPassing clouds.9 mph80%30.09 "HgN/A
11:20 AM32 °FSunny.10 mph80%30.12 "Hg10 mi
10:50 AM30 °FSunny.8 mph93%30.12 "Hg10 mi
10:20 AM28 °FPassing clouds.5 mph100%30.12 "HgN/A
9:50 AM28 °FSunny.5 mph93%30.12 "Hg10 mi
9:20 AM27 °FSunny.6 mph100%30.15 "Hg10 mi
8:50 AM27 °FClear.8 mph93%30.15 "Hg5 mi
8:01 AM27 °FPassing clouds.6 mph100%30.15 "Hg5 mi
7:20 AM27 °FIce fog.6 mph100%30.15 "Hg0 mi
6:59 AM27 °FIce fog.3 mph93%30.15 "Hg1 mi
6:50 AM25 °FClear.5 mph100%30.15 "Hg4 mi
6:20 AM25 °FIce fog.6 mph100%30.15 "Hg2 mi
5:50 AM27 °FIce fog.7 mph93%30.15 "Hg3 mi
5:20 AM27 °FClear.7 mph93%30.18 "Hg10 mi
4:50 AM28 °FClear.8 mph86%30.18 "Hg10 mi
3:50 AM28 °FClear.7 mph93%30.18 "Hg10 mi
3:20 AM28 °FClear.7 mph93%30.21 "Hg10 mi
Weather by CustomWeather, © 2015

See weather overviewHow to use our weather pages